KLM85K LSGG-EHAM

Flight info

Callsign KLM85K
Flight time 1h 10m
Altitude 36000
Route DIPIR1A·ARBOS/22 ARBOS DCT PENDU DCT IXILU DCT GIVOR DCT SORAL DCT IBERA DCT BUB Y28 HELEN
Aircraft B738/M-SDE2E3FGHIRWXY/LB1

Departure

Time 2026-05-05 18:56
Airport Geneva International Airport (LSGG)

Arrival

Time 2026-05-05 20:06
Airport Amsterdam Airport Schiphol (EHAM)
Time Latitude Longitude Altitude Speed Heading
2026-05-05 18:35 46.23125 6.10702 1401 ft 0 kts 136°
2026-05-05 18:48 46.23127 6.10700 1392 ft 2 kts 136°
2026-05-05 18:48 46.23138 6.10681 1404 ft 3 kts 120°
2026-05-05 18:48 46.23145 6.10656 1399 ft 3 kts 92°
2026-05-05 18:48 46.23142 6.10630 1398 ft 3 kts 56°
2026-05-05 18:49 46.23137 6.10621 1403 ft 0 kts 44°
2026-05-05 18:51 46.23141 6.10625 1398 ft 3 kts 42°
2026-05-05 18:51 46.23165 6.10658 1399 ft 6 kts 45°
2026-05-05 18:51 46.23201 6.10711 1392 ft 9 kts 46°
2026-05-05 18:51 46.23264 6.10777 1396 ft 12 kts 20°
2026-05-05 18:52 46.23347 6.10834 1398 ft 13 kts 43°
2026-05-05 18:52 46.23417 6.10936 1392 ft 18 kts 45°
2026-05-05 18:52 46.23508 6.11069 1403 ft 18 kts 45°
2026-05-05 18:52 46.23596 6.11159 1387 ft 11 kts 346°
2026-05-05 18:53 46.23656 6.11087 1389 ft 12 kts 315°
2026-05-05 18:53 46.23730 6.11118 1383 ft 15 kts 44°
2026-05-05 18:53 46.23821 6.11250 1377 ft 21 kts 45°
2026-05-05 18:53 46.23924 6.11400 1373 ft 21 kts 45°
2026-05-05 18:54 46.24024 6.11548 1370 ft 20 kts 45°
2026-05-05 18:54 46.24120 6.11690 1366 ft 20 kts 45°
2026-05-05 18:54 46.24215 6.11828 1365 ft 19 kts 45°
2026-05-05 18:54 46.24316 6.11931 1363 ft 18 kts 348°
2026-05-05 18:55 46.24334 6.11833 1365 ft 11 kts 257°
2026-05-05 18:55 46.24318 6.11713 1370 ft 13 kts 272°
2026-05-05 18:55 46.24242 6.11536 1373 ft 46 kts 225°
2026-05-05 18:55 46.23868 6.10988 1378 ft 106 kts 225°
2026-05-05 18:56 46.23223 6.10041 1408 ft 154 kts 224°
2026-05-05 18:56 46.22424 6.08878 1846 ft 169 kts 222°
2026-05-05 18:56 46.21538 6.07600 2552 ft 180 kts 224°
2026-05-05 18:56 46.20722 6.06405 3887 ft 161 kts 224°
2026-05-05 18:57 46.19881 6.05167 4408 ft 189 kts 225°
2026-05-05 18:57 46.18897 6.03715 4669 ft 218 kts 225°
2026-05-05 18:57 46.17762 6.02047 4921 ft 244 kts 225°
2026-05-05 18:57 46.16553 6.00272 5549 ft 251 kts 225°
2026-05-05 18:58 46.15325 5.98470 6373 ft 252 kts 225°
2026-05-05 18:58 46.14093 5.96660 7121 ft 254 kts 227°
2026-05-05 18:58 46.13227 5.94459 7803 ft 261 kts 254°
2026-05-05 18:58 46.13160 5.91789 8486 ft 271 kts 278°
2026-05-05 18:59 46.13865 5.89248 9210 ft 281 kts 300°
2026-05-05 18:59 46.15273 5.87280 9971 ft 287 kts 324°
2026-05-05 18:59 46.17131 5.86097 10482 ft 302 kts 337°
2026-05-05 18:59 46.19202 5.85130 10658 ft 325 kts 339°
2026-05-05 19:00 46.21463 5.84143 10829 ft 347 kts 340°
2026-05-05 19:00 46.23820 5.83119 11105 ft 362 kts 340°
2026-05-05 19:00 46.26264 5.82043 11688 ft 368 kts 340°
2026-05-05 19:00 46.28704 5.80948 12324 ft 371 kts 340°
2026-05-05 19:01 46.31168 5.79830 12975 ft 374 kts 340°
2026-05-05 19:01 46.33675 5.78685 13644 ft 378 kts 340°
2026-05-05 19:01 46.36183 5.77531 14241 ft 381 kts 340°
2026-05-05 19:01 46.38737 5.76354 14826 ft 384 kts 340°
2026-05-05 19:02 46.41276 5.75180 15396 ft 387 kts 340°
2026-05-05 19:02 46.43870 5.73978 15975 ft 391 kts 340°
2026-05-05 19:02 46.46456 5.72781 16565 ft 393 kts 340°
2026-05-05 19:02 46.49065 5.71571 17139 ft 396 kts 340°
2026-05-05 19:03 46.51698 5.70349 17697 ft 400 kts 340°
2026-05-05 19:03 46.54383 5.69099 18246 ft 403 kts 339°
2026-05-05 19:03 46.56941 5.67566 18704 ft 403 kts 329°
2026-05-05 19:03 46.59401 5.65545 19186 ft 405 kts 327°
2026-05-05 19:04 46.61845 5.63500 19647 ft 409 kts 329°
2026-05-05 19:04 46.64591 5.62176 20027 ft 420 kts 352°
2026-05-05 19:04 46.67501 5.62387 20476 ft 427 kts 13°
2026-05-05 19:04 46.70286 5.64007 20933 ft 431 kts 32°
2026-05-05 19:05 46.72611 5.66747 21355 ft 433 kts 44°
2026-05-05 19:05 46.74784 5.69806 21765 ft 437 kts 45°
2026-05-05 19:05 46.76951 5.72913 22157 ft 441 kts 45°
2026-05-05 19:05 46.79154 5.76031 22579 ft 444 kts 44°
2026-05-05 19:06 46.81420 5.79176 23021 ft 447 kts 44°
2026-05-05 19:06 46.83691 5.82299 23431 ft 449 kts 44°
2026-05-05 19:06 46.85965 5.85422 23762 ft 452 kts 44°
2026-05-05 19:06 46.88258 5.88577 24092 ft 455 kts 44°
2026-05-05 19:07 46.90580 5.91777 24450 ft 457 kts 44°
2026-05-05 19:07 46.92899 5.94980 24765 ft 460 kts 44°
2026-05-05 19:07 46.95231 5.98171 25083 ft 463 kts 41°
2026-05-05 19:07 46.97895 6.00790 25358 ft 467 kts 26°
2026-05-05 19:08 47.00966 6.02432 25702 ft 467 kts 12°
2026-05-05 19:08 47.04202 6.02988 26014 ft 466 kts 359°
2026-05-05 19:08 47.07446 6.03006 26323 ft 468 kts 358°
2026-05-05 19:08 47.10679 6.02974 26601 ft 471 kts 358°
2026-05-05 19:09 47.13996 6.02956 26893 ft 473 kts 358°
2026-05-05 19:09 47.17270 6.02972 27192 ft 475 kts 359°
2026-05-05 19:09 47.20585 6.03017 27491 ft 477 kts 359°
2026-05-05 19:09 47.23935 6.03081 27758 ft 479 kts 360°
2026-05-05 19:10 47.27252 6.03150 28041 ft 480 kts 360°
2026-05-05 19:10 47.30583 6.03217 28312 ft 482 kts 360°
2026-05-05 19:10 47.33941 6.03283 28566 ft 484 kts 360°
2026-05-05 19:10 47.37352 6.03348 28843 ft 485 kts 360°
2026-05-05 19:11 47.40720 6.03416 29119 ft 487 kts
2026-05-05 19:11 47.44107 6.03485 29473 ft 486 kts
2026-05-05 19:11 47.47465 6.03555 29883 ft 484 kts
2026-05-05 19:11 47.50843 6.03624 30216 ft 483 kts
2026-05-05 19:12 47.54201 6.03693 30492 ft 482 kts
2026-05-05 19:12 47.57535 6.03762 30784 ft 481 kts 360°
2026-05-05 19:12 47.60915 6.03831 31111 ft 480 kts 360°
2026-05-05 19:12 47.64237 6.03899 31435 ft 478 kts 360°
2026-05-05 19:13 47.67543 6.03967 31718 ft 477 kts 360°
2026-05-05 19:13 47.70880 6.04036 31993 ft 477 kts 360°
2026-05-05 19:13 47.74169 6.04259 32259 ft 477 kts
2026-05-05 19:13 47.77455 6.05165 32528 ft 476 kts 13°
2026-05-05 19:14 47.80659 6.06369 32826 ft 475 kts 14°
2026-05-05 19:14 47.83829 6.07620 33084 ft 475 kts 14°
2026-05-05 19:14 47.87028 6.08890 33334 ft 474 kts 14°
2026-05-05 19:14 47.90237 6.10148 33596 ft 473 kts 14°
2026-05-05 19:15 47.93408 6.11373 33857 ft 472 kts 14°
2026-05-05 19:15 47.96586 6.12585 34061 ft 472 kts 14°
2026-05-05 19:15 47.99786 6.13797 34217 ft 473 kts 13°
2026-05-05 19:15 48.02970 6.14999 34374 ft 473 kts 13°
2026-05-05 19:16 48.06138 6.16195 34559 ft 472 kts 13°
2026-05-05 19:16 48.09337 6.17405 34749 ft 472 kts 14°
2026-05-05 19:16 48.12538 6.18618 34915 ft 472 kts 14°
2026-05-05 19:16 48.15707 6.19821 35091 ft 471 kts 14°
2026-05-05 19:17 48.18885 6.21018 35255 ft 471 kts 12°
2026-05-05 19:17 48.22097 6.21996 35395 ft 471 kts
2026-05-05 19:17 48.25307 6.22781 35547 ft 471 kts
2026-05-05 19:17 48.28533 6.23497 35712 ft 470 kts
2026-05-05 19:18 48.31788 6.24210 35827 ft 471 kts
2026-05-05 19:18 48.35025 6.24937 35820 ft 473 kts
2026-05-05 19:18 48.41528 6.26471 35833 ft 472 kts
2026-05-05 19:19 48.46940 6.27791 35834 ft 470 kts
2026-05-05 19:19 48.53373 6.29375 35831 ft 468 kts
2026-05-05 19:20 48.59786 6.30956 35826 ft 467 kts
2026-05-05 19:20 48.66194 6.32536 35832 ft 466 kts
2026-05-05 19:21 48.72600 6.34119 35843 ft 469 kts
2026-05-05 19:21 48.79074 6.35724 35835 ft 472 kts
2026-05-05 19:22 48.85549 6.37333 35818 ft 470 kts
2026-05-05 19:22 48.91948 6.38927 35824 ft 466 kts
2026-05-05 19:23 48.98333 6.40522 35836 ft 466 kts
2026-05-05 19:23 49.04799 6.42141 35838 ft 470 kts
2026-05-05 19:24 49.11274 6.43140 35824 ft 470 kts 357°
2026-05-05 19:24 49.17686 6.41446 35843 ft 464 kts 344°
2026-05-05 19:25 49.23898 6.38752 35832 ft 464 kts 343°
2026-05-05 19:25 49.30143 6.36083 35832 ft 468 kts 344°
2026-05-05 19:26 49.36338 6.33509 35821 ft 471 kts 345°
2026-05-05 19:26 49.42707 6.30872 35807 ft 472 kts 345°
2026-05-05 19:27 49.48976 6.28085 35795 ft 467 kts 338°
2026-05-05 19:27 49.54582 6.23227 35803 ft 464 kts 321°
2026-05-05 19:28 49.59680 6.17027 35800 ft 465 kts 320°
2026-05-05 19:28 49.64724 6.10802 35806 ft 467 kts 321°
2026-05-05 19:29 49.69810 6.04589 35807 ft 468 kts 321°
2026-05-05 19:29 49.74943 5.98353 35809 ft 469 kts 321°
2026-05-05 19:30 49.80092 5.92094 35814 ft 470 kts 321°
2026-05-05 19:30 49.85228 5.85833 35812 ft 470 kts 321°
2026-05-05 19:31 49.90352 5.79566 35823 ft 470 kts 321°
2026-05-05 19:31 49.95462 5.73296 35821 ft 469 kts 321°
2026-05-05 19:32 50.00588 5.66991 35814 ft 467 kts 321°
2026-05-05 19:32 50.05656 5.60739 35823 ft 464 kts 321°
2026-05-05 19:33 50.10686 5.54517 35828 ft 463 kts 321°
2026-05-05 19:33 50.15729 5.48261 35838 ft 464 kts 321°
2026-05-05 19:34 50.20811 5.41939 35843 ft 469 kts 321°
2026-05-05 19:35 50.28479 5.32367 35829 ft 470 kts 320°
2026-05-05 19:35 50.33574 5.25985 35669 ft 471 kts 320°
2026-05-05 19:35 50.36156 5.22743 35219 ft 472 kts 320°
2026-05-05 19:36 50.38683 5.19565 34801 ft 468 kts 321°
2026-05-05 19:36 50.41202 5.16395 34379 ft 465 kts 321°
2026-05-05 19:36 50.43731 5.13207 33947 ft 462 kts 321°
2026-05-05 19:36 50.46223 5.10060 33463 ft 460 kts 321°
2026-05-05 19:37 50.48719 5.06905 33020 ft 456 kts 321°
2026-05-05 19:37 50.51162 5.03812 32600 ft 453 kts 321°
2026-05-05 19:37 50.53617 5.00699 32176 ft 449 kts 321°
2026-05-05 19:37 50.56048 4.97613 31776 ft 445 kts 321°
2026-05-05 19:38 50.58418 4.94601 31393 ft 441 kts 321°
2026-05-05 19:38 50.60801 4.91567 30994 ft 438 kts 321°
2026-05-05 19:38 50.63171 4.88545 30601 ft 435 kts 321°
2026-05-05 19:38 50.65492 4.85584 30220 ft 431 kts 321°
2026-05-05 19:39 50.67826 4.82600 29821 ft 429 kts 321°
2026-05-05 19:39 50.70119 4.79666 29384 ft 425 kts 321°
2026-05-05 19:39 50.72161 4.77049 29014 ft 421 kts 321°
2026-05-05 19:39 50.74410 4.74165 28629 ft 417 kts 321°
2026-05-05 19:40 50.76659 4.71275 28246 ft 413 kts 321°
2026-05-05 19:40 50.78885 4.68412 27837 ft 409 kts 321°
2026-05-05 19:40 50.81066 4.65603 27462 ft 406 kts 320°
2026-05-05 19:40 50.83256 4.62780 27070 ft 402 kts 320°
2026-05-05 19:41 50.85418 4.59989 26690 ft 399 kts 320°
2026-05-05 19:41 50.87552 4.57232 26311 ft 396 kts 320°
2026-05-05 19:41 50.89602 4.54395 25929 ft 393 kts 313°
2026-05-05 19:41 50.91338 4.51087 25645 ft 386 kts 302°
2026-05-05 19:42 50.92764 4.47486 25407 ft 380 kts 300°
2026-05-05 19:42 50.94116 4.43933 25076 ft 378 kts 300°
2026-05-05 19:42 50.95476 4.40339 24732 ft 381 kts 300°
2026-05-05 19:42 50.96839 4.36755 24369 ft 382 kts 300°
2026-05-05 19:43 50.98213 4.33164 23999 ft 380 kts 300°
2026-05-05 19:43 50.99593 4.29573 23626 ft 378 kts 300°
2026-05-05 19:43 51.00967 4.26007 23210 ft 377 kts 300°
2026-05-05 19:43 51.02321 4.22488 22812 ft 374 kts 300°
2026-05-05 19:44 51.03680 4.18956 22422 ft 371 kts 300°
2026-05-05 19:44 51.05013 4.15486 22050 ft 368 kts 300°
2026-05-05 19:44 51.06352 4.11995 21683 ft 365 kts 300°
2026-05-05 19:44 51.07660 4.08581 21321 ft 363 kts 300°
2026-05-05 19:45 51.09017 4.05208 20953 ft 361 kts 306°
2026-05-05 19:45 51.10669 4.02239 20600 ft 359 kts 316°
2026-05-05 19:45 51.12605 3.99773 20253 ft 357 kts 323°
2026-05-05 19:45 51.14621 3.97446 19900 ft 355 kts 323°
2026-05-05 19:46 51.16615 3.95152 19546 ft 354 kts 323°
2026-05-05 19:46 51.18605 3.92823 19194 ft 352 kts 323°
2026-05-05 19:46 51.20547 3.90523 18845 ft 351 kts 323°
2026-05-05 19:46 51.22536 3.88252 18489 ft 349 kts 332°
2026-05-05 19:47 51.24814 3.86966 18188 ft 343 kts 354°
2026-05-05 19:47 51.27166 3.86717 17889 ft 339 kts
2026-05-05 19:47 51.29524 3.86671 17527 ft 338 kts
2026-05-05 19:47 51.31856 3.86667 17187 ft 337 kts
2026-05-05 19:48 51.34199 3.86659 16842 ft 335 kts
2026-05-05 19:48 51.36524 3.86639 16504 ft 332 kts
2026-05-05 19:48 51.38811 3.86605 16177 ft 329 kts
2026-05-05 19:48 51.41084 3.86563 15848 ft 327 kts
2026-05-05 19:49 51.43359 3.86515 15522 ft 325 kts
2026-05-05 19:49 51.44858 3.86482 15303 ft 323 kts
2026-05-05 19:49 51.47837 3.86411 14874 ft 320 kts
2026-05-05 19:49 51.50072 3.86358 14555 ft 318 kts
2026-05-05 19:50 51.52267 3.86305 14230 ft 316 kts
2026-05-05 19:50 51.54466 3.86252 13911 ft 314 kts
2026-05-05 19:50 51.56634 3.86200 13577 ft 313 kts
2026-05-05 19:50 51.58815 3.86147 13231 ft 311 kts
2026-05-05 19:51 51.60984 3.86095 12896 ft 309 kts
2026-05-05 19:51 51.63116 3.86042 12579 ft 307 kts
2026-05-05 19:51 51.65230 3.85991 12256 ft 304 kts 360°
2026-05-05 19:51 51.67349 3.85940 11954 ft 302 kts 360°
2026-05-05 19:52 51.69422 3.85889 11644 ft 300 kts 359°
2026-05-05 19:52 51.70939 3.85907 11409 ft 299 kts
2026-05-05 19:52 51.72891 3.86890 11057 ft 295 kts 30°
2026-05-05 19:52 51.74515 3.88893 10693 ft 290 kts 41°
2026-05-05 19:53 51.76011 3.91054 10342 ft 292 kts 41°
2026-05-05 19:53 51.77528 3.93281 9980 ft 293 kts 41°
2026-05-05 19:53 51.79043 3.95500 9602 ft 293 kts 41°
2026-05-05 19:53 51.80554 3.97704 9215 ft 293 kts 41°
2026-05-05 19:54 51.82044 3.99869 8842 ft 287 kts 41°
2026-05-05 19:54 51.83520 4.02011 8465 ft 280 kts 41°
2026-05-05 19:54 51.84951 4.04086 8116 ft 279 kts 41°
2026-05-05 19:54 51.86401 4.06184 7845 ft 278 kts 41°
2026-05-05 19:55 51.87847 4.08279 7541 ft 278 kts 41°
2026-05-05 19:55 51.89269 4.10341 7241 ft 276 kts 41°
2026-05-05 19:55 51.90683 4.12394 6946 ft 268 kts 41°
2026-05-05 19:55 51.92056 4.14344 6659 ft 260 kts 39°
2026-05-05 19:56 51.93440 4.16182 6393 ft 253 kts 38°
2026-05-05 19:56 51.94777 4.17931 6120 ft 246 kts 38°
2026-05-05 19:56 51.96089 4.19645 5846 ft 238 kts 38°
2026-05-05 19:56 51.97372 4.21327 5580 ft 232 kts 38°
2026-05-05 19:57 51.98594 4.22935 5333 ft 226 kts 38°
2026-05-05 19:57 51.99417 4.24019 5153 ft 223 kts 38°
2026-05-05 19:57 52.00988 4.26091 4816 ft 218 kts 39°
2026-05-05 19:57 52.02164 4.27647 4554 ft 215 kts 39°
2026-05-05 19:58 52.03318 4.29174 4296 ft 213 kts 39°
2026-05-05 19:58 52.04461 4.30688 4038 ft 212 kts 39°
2026-05-05 19:58 52.05568 4.32158 3786 ft 212 kts 39°
2026-05-05 19:58 52.06704 4.33667 3543 ft 213 kts 40°
2026-05-05 19:59 52.07860 4.35202 3294 ft 214 kts 40°
2026-05-05 19:59 52.09012 4.36735 3022 ft 211 kts 39°
2026-05-05 19:59 52.10120 4.38211 2763 ft 204 kts 39°
2026-05-05 19:59 52.11200 4.39649 2493 ft 199 kts 40°
2026-05-05 20:00 52.12263 4.41067 2221 ft 193 kts 40°
2026-05-05 20:00 52.13275 4.42418 2041 ft 186 kts 39°
2026-05-05 20:00 52.14271 4.43747 2008 ft 185 kts 39°
2026-05-05 20:00 52.15265 4.45073 2003 ft 183 kts 39°
2026-05-05 20:01 52.16248 4.46387 1993 ft 184 kts 39°
2026-05-05 20:01 52.17231 4.47701 1982 ft 184 kts 39°
2026-05-05 20:01 52.18223 4.49029 1997 ft 184 kts 39°
2026-05-05 20:01 52.19223 4.50368 1999 ft 186 kts 39°
2026-05-05 20:02 52.20200 4.51717 1993 ft 185 kts 45°
2026-05-05 20:02 52.21010 4.53340 1999 ft 181 kts 50°
2026-05-05 20:02 52.21493 4.54419 1968 ft 174 kts 53°
2026-05-05 20:02 52.22353 4.56558 1968 ft 166 kts 56°
2026-05-05 20:03 52.22763 4.57624 2012 ft 165 kts 56°
2026-05-05 20:03 52.23366 4.59204 2023 ft 168 kts 56°
2026-05-05 20:03 52.24188 4.61358 1799 ft 165 kts 56°
2026-05-05 20:03 52.24591 4.62416 1651 ft 158 kts 56°
2026-05-05 20:04 52.25137 4.63852 1483 ft 141 kts 55°
2026-05-05 20:04 52.25637 4.65164 1327 ft 131 kts 56°
2026-05-05 20:04 52.26112 4.66424 1086 ft 132 kts 55°
2026-05-05 20:04 52.26598 4.67704 897 ft 135 kts 54°
2026-05-05 20:05 52.27092 4.68997 737 ft 135 kts 55°
2026-05-05 20:05 52.27595 4.70304 556 ft 136 kts 54°
2026-05-05 20:05 52.28107 4.71637 362 ft 139 kts 53°
2026-05-05 20:05 52.28616 4.72962 155 ft 141 kts 55°
2026-05-05 20:06 52.29136 4.74314 12 ft 137 kts 55°
2026-05-05 20:06 52.29580 4.75463 -3 ft 94 kts 57°
2026-05-05 20:06 52.29838 4.76140 -5 ft 59 kts 58°
2026-05-05 20:06 52.30045 4.76550 -3 ft 27 kts 31°
2026-05-05 20:07 52.30171 4.76661 -2 ft 12 kts 27°
2026-05-05 20:07 52.30240 4.76722 -2 ft 11 kts 26°
2026-05-05 20:07 52.30300 4.76797 -2 ft 11 kts 55°
2026-05-05 20:07 52.30342 4.76900 -2 ft 11 kts 58°
2026-05-05 20:08 52.30380 4.77000 -2 ft 10 kts 58°
2026-05-05 20:08 52.30418 4.77097 -2 ft 10 kts 57°
2026-05-05 20:08 52.30454 4.77193 -2 ft 10 kts 57°
2026-05-05 20:08 52.30493 4.77294 -2 ft 13 kts 58°
2026-05-05 20:09 52.30542 4.77421 -2 ft 13 kts 58°
2026-05-05 20:09 52.30600 4.77549 -2 ft 14 kts 40°
2026-05-05 20:09 52.30690 4.77590 -2 ft 13 kts
2026-05-05 20:09 52.30781 4.77599 -2 ft 13 kts
2026-05-05 20:10 52.30833 4.77503 -2 ft 13 kts 274°
2026-05-05 20:10 52.30839 4.77361 -2 ft 12 kts 274°
2026-05-05 20:10 52.30865 4.77303 -2 ft 5 kts 353°
2026-05-05 20:10 52.30887 4.77303 -2 ft 1 kts
2026-05-05 20:11 52.30891 4.77303 -2 ft 1 kts
2026-05-05 20:11 52.30895 4.77303 -2 ft 0 kts
2026-05-05 20:11 52.30896 4.77303 -2 ft 0 kts